UAL177 KLAX-KSFO

Flight info

Callsign UAL177
Flight time N/A
Altitude 36000
Route SUMMR2 STOKD SERFR SERFR4
Aircraft B38M/M-SDE1FGHILORVWXY/HB1

Departure

Time 2026-05-05 23:41
Airport Los Angeles International Airport (KLAX)

Arrival

Time N/A
Airport San Francisco International Airport (KSFO)
Time Latitude Longitude Altitude Speed Heading
2026-05-05 23:21 33.94158 -118.40028 123 ft 0 kts 96°
2026-05-05 23:22 33.94116 -118.40027 122 ft 0 kts 95°
2026-05-05 23:26 33.94115 -118.40021 127 ft 0 kts 95°
2026-05-05 23:26 33.94115 -118.40020 127 ft 0 kts 96°
2026-05-05 23:29 33.94116 -118.40029 122 ft 2 kts 98°
2026-05-05 23:30 33.94118 -118.40045 123 ft 2 kts 98°
2026-05-05 23:30 33.94121 -118.40064 123 ft 2 kts 113°
2026-05-05 23:30 33.94127 -118.40076 123 ft 2 kts 144°
2026-05-05 23:30 33.94140 -118.40084 123 ft 2 kts 166°
2026-05-05 23:31 33.94148 -118.40086 124 ft 0 kts 172°
2026-05-05 23:33 33.94144 -118.40085 124 ft 2 kts 173°
2026-05-05 23:34 33.94119 -118.40081 122 ft 5 kts 172°
2026-05-05 23:34 33.94073 -118.40074 124 ft 8 kts 173°
2026-05-05 23:34 33.94044 -118.40070 124 ft 1 kts 173°
2026-05-05 23:34 33.94036 -118.40069 124 ft 2 kts 173°
2026-05-05 23:35 33.94010 -118.40065 124 ft 5 kts 173°
2026-05-05 23:35 33.93962 -118.40058 125 ft 8 kts 173°
2026-05-05 23:35 33.93900 -118.40033 123 ft 11 kts 141°
2026-05-05 23:35 33.93884 -118.39942 123 ft 13 kts 84°
2026-05-05 23:36 33.93897 -118.39818 122 ft 17 kts 83°
2026-05-05 23:36 33.93905 -118.39733 125 ft 19 kts 83°
2026-05-05 23:36 33.93923 -118.39563 127 ft 22 kts 83°
2026-05-05 23:36 33.93942 -118.39369 124 ft 25 kts 83°
2026-05-05 23:37 33.93964 -118.39157 123 ft 27 kts 83°
2026-05-05 23:37 33.93988 -118.38928 124 ft 28 kts 83°
2026-05-05 23:37 33.94012 -118.38690 122 ft 29 kts 83°
2026-05-05 23:37 33.94038 -118.38439 125 ft 31 kts 83°
2026-05-05 23:38 33.94064 -118.38186 127 ft 28 kts 83°
2026-05-05 23:38 33.94074 -118.38080 127 ft 16 kts 83°
2026-05-05 23:38 33.94075 -118.38022 127 ft 0 kts 107°
2026-05-05 23:39 33.94072 -118.38016 127 ft 2 kts 115°
2026-05-05 23:39 33.94049 -118.37999 122 ft 6 kts 169°
2026-05-05 23:40 33.93997 -118.38004 123 ft 9 kts 211°
2026-05-05 23:40 33.93980 -118.38070 125 ft 6 kts 263°
2026-05-05 23:40 33.93980 -118.38076 127 ft 0 kts 263°
2026-05-05 23:40 33.93980 -118.38078 127 ft 1 kts 263°
2026-05-05 23:41 33.93960 -118.38268 124 ft 65 kts 263°
2026-05-05 23:41 33.93906 -118.38798 127 ft 125 kts 263°
2026-05-05 23:41 33.93784 -118.39975 393 ft 169 kts 261°
2026-05-05 23:41 33.93631 -118.41390 1504 ft 168 kts 263°
2026-05-05 23:42 33.93491 -118.42671 2693 ft 144 kts 264°
2026-05-05 23:42 33.93374 -118.43945 2976 ft 173 kts 264°
2026-05-05 23:42 33.93215 -118.45540 2983 ft 204 kts 263°
2026-05-05 23:42 33.93094 -118.47409 3125 ft 242 kts 264°
2026-05-05 23:43 33.92894 -118.49476 3954 ft 252 kts 263°
2026-05-05 23:43 33.92698 -118.51597 4874 ft 259 kts 265°
2026-05-05 23:43 33.92581 -118.53031 5501 ft 260 kts 265°
2026-05-05 23:43 33.92350 -118.55951 6703 ft 268 kts 265°
2026-05-05 23:44 33.92163 -118.58206 7534 ft 274 kts 265°
2026-05-05 23:44 33.91970 -118.60509 8460 ft 279 kts 266°
2026-05-05 23:44 33.91787 -118.62859 9348 ft 284 kts 270°
2026-05-05 23:44 33.91790 -118.64470 9905 ft 287 kts 273°
2026-05-05 23:45 33.91786 -118.66121 10414 ft 292 kts 273°
2026-05-05 23:45 33.91766 -118.68503 10719 ft 314 kts 272°
2026-05-05 23:45 33.91746 -118.71181 11325 ft 324 kts 272°
2026-05-05 23:45 33.91736 -118.73922 11868 ft 332 kts 272°
2026-05-05 23:46 33.91728 -118.76713 11988 ft 333 kts 272°
2026-05-05 23:46 33.91715 -118.79492 11984 ft 332 kts 271°
2026-05-05 23:46 33.91701 -118.82273 11982 ft 332 kts 272°
2026-05-05 23:46 33.91784 -118.85033 12057 ft 332 kts 276°
2026-05-05 23:47 33.91857 -118.87837 12782 ft 335 kts 274°
2026-05-05 23:47 33.91905 -118.90666 13611 ft 339 kts 274°
2026-05-05 23:47 33.91990 -118.93521 14357 ft 343 kts 274°